Regional Weather Roundup
Issued by NWS

Home | Current Version | Previous Version | Text Only | Print | Product List | Glossary Off
Versions: 1 2 3 4 5 6 7 8 9 10 11 12 13 14 15 16 17 18 19 20 21 22 23 24 25 26 27 28 29 30 31 32 33 34 35 36 37 38 39 40 41 42 43 44 45 46 47 48 49 50

000
ASUS43 KOAX 022010
RWRNE

WEATHER ROUNDUP FOR NEBRASKA
NATIONAL WEATHER SERVICE OMAHA NE
300 PM CDT THU JUL 02 2015

NOTES: SATELLITE DATA IS BEING USED TO AUGMENT CLOUD COVER ABOVE
       12000 FEET.
       "FAIR" INDICATES FEW OR NO CLOUDS BELOW 12,000 FEET WITH NO
       SIGNIFICANT WEATHER AND/OR OBSTRUCTIONS TO VISIBILITY.

  * THESE STATIONS DO NOT REPORT WEATHER SUCH AS RAIN...SNOW OR FOG.

NEZ001>004-019>022-054>056-022100-
NEBRASKA PANHANDLE

CITY           SKY/WX    TMP DP  RH WIND       PRES   REMARKS
SCOTTSBLUFF    PTSUNNY   84  53  34 N13       30.12S
ALLIANCE       PTSUNNY   78  59  51 N8        30.10F
CHADRON        MOSUNNY   81  60  48 N14       30.08S
KIMBALL          N/A    N/A N/A N/A MISG        N/A
SIDNEY         MOSUNNY   80  57  45 N13G20    30.15S
$$

NEZ057>060-069>072-079>082-022100-
SOUTHWEST NEBRASKA

CITY           SKY/WX    TMP DP  RH WIND       PRES   REMARKS
NORTH PLATTE   PTSUNNY   84  56  38 NW10G17   30.01F
IMPERIAL       MOSUNNY   87  58  37 N12       30.06F
LEXINGTON      SUNNY     85  62  46 NW10      29.98F
MCCOOK         MOSUNNY   87  60  40 N13G21    30.00F
OGALLALA       MOSUNNY   80  60  49 N15G24    30.07S
$$

NEZ005>010-023>029-035>040-094-022100-
NORTH CENTRAL NEBRASKA

CITY           SKY/WX    TMP DP  RH WIND       PRES   REMARKS
VALENTINE      SUNNY     79  59  50 N15G24    30.02S
AINSWORTH      MOSUNNY   81  59  47 NW18G25   30.01S
BROKEN BOW     MOSUNNY   83  62  49 N16G22    29.97F
O`NEILL        PTSUNNY   75  67  76 NE10      29.97S
ORD            MOSUNNY   85  59  41 N15G24    29.92F
THEDFORD       MOSUNNY   80  60  51 N16G22    30.04S
$$

NEZ041-046>049-061>064-073>077-083>087-022100-
SOUTH CENTRAL NEBRASKA

CITY           SKY/WX    TMP DP  RH WIND       PRES   REMARKS
GRAND ISLAND   PTSUNNY   86  61  42 W8G17     29.93F
AURORA         PTSUNNY   81  64  55 NE3       29.93S
HASTINGS       MOSUNNY   83  64  52 VRB6      29.94F
HEBRON         SUNNY     82  65  55 SW6       29.92F
HOLDREGE       SUNNY     82  59  45 N5        29.97F
KEARNEY *      MOSUNNY   84  61  45 NW9       29.95F
YORK           MOSUNNY   73  68  83 SE6       29.94F
$$

NEZ011>018-030>034-042>045-022100-
NORTHEAST NEBRASKA

CITY           SKY/WX    TMP DP  RH WIND       PRES   REMARKS
NORFOLK        CLOUDY    66  63  90 E10       29.96F
ALBION         MOSUNNY   77  65  65 S6        29.92F
BLAIR          CLOUDY    65  63  90 E5        29.96R FOG
COLUMBUS *     CLOUDY    72  63  73 NE7       29.96R
FREMONT        CLOUDY    69  65  88 E5        29.97R
TEKAMAH        LGT RAIN  69  65  86 SE6       29.97R
WAYNE          CLOUDY    66  64  92 E8        29.98R
$$

NEZ050>053-065>068-078-088>093-022100-
SOUTHEAST NEBRASKA

CITY           SKY/WX    TMP DP  RH WIND       PRES   REMARKS
LINCOLN        CLOUDY    71  66  84 S10       29.94F
OMAHA EPPLEY   CLOUDY    69  65  86 SE12      29.95F
BEATRICE       CLOUDY    72  68  89 SE3       29.94F
FALLS CITY     LGT RAIN  71  68  90 E8        29.92F
NEBRASKA CITY  RAIN      66  65  98 NW7       29.97R
PLATTSMOUTH    LGT RAIN  68  65  92 SE7       29.93F
$$

NEZ044-045-051>053-067-022100-
OMAHA AREA

CITY           SKY/WX    TMP DP  RH WIND       PRES   REMARKS
OMAHA EPPLEY   CLOUDY    69  65  86 SE12      29.95F
BLAIR          CLOUDY    65  63  90 E5        29.96R FOG
FREMONT        CLOUDY    69  65  88 E5        29.97R
MILLARD        CLOUDY    68  65  90 E3        29.95S FOG
OFFUTT AFB     CLOUDY    70  66  88 E7        29.94F
PLATTSMOUTH    LGT RAIN  68  65  92 SE7       29.93F
WAHOO          CLOUDY    70  65  86 SE7       29.95S
$$



USA.gov is the U.S. government's official web portal to all federal, state and local government web resources and services.